Vorticity
2 6 4 4 -3 -3 6 4 4 1 -1 1 2 4 4 4 4 4 6 4 3 4 4 4 4 4 4 5 4 4 3 3 4 3 3 3 4 3 4 4 4 4 6 5 6 6 1 1 0
2 2 7 3 2 2 -1 6 4 3 3 -1 1 3 2 5 4 2 3 3 4 4 4 2 1 2 4 4 5 5 4 4 4 4 4 4 4 4 5 4 5 5 7 4 3 2 6 8 4
5 1 2 6 2 5 1 2 4 4 8 2 1 3 2 5 4 4 4 3 3 0 0 -0 1 5 5 5 5 5 5 5 5 4 4 4 5 5 6 4 6 4 2 1 1 3 2 3 1
12 4 4 -0 3 1 5 -0 3 5 5 6 1 3 3 5 6 3 2 3 1 1 -1 -0 2 6 4 6 6 6 5 6 5 5 5 5 5 5 3 4 2 1 3 4 3 1 2 5 4
6 13 5 -0 3 8 3 1 1 3 10 8 -1 2 5 4 4 4 2 1 2 1 1 1 2 5 1 3 6 6 6 6 6 5 5 6 4 5 5 1 3 2 1 1 7 7 11 10 6
1 7 11 3 3 5 4 3 1 3 7 5 4 -2 4 4 5 5 3 3 1 2 2 1 2 5 2 2 4 8 8 8 6 6 5 6 4 3 0 2 1 1 0 6 6 2 6 6 7
9 2 6 11 3 2 7 2 2 1 3 6 2 -4 3 4 3 1 5 4 2 3 2 1 3 2 0 -1 4 9 8 7 6 6 5 5 5 1 1 2 0 3 2 3 -0 1 7 6 6
8 7 2 5 14 0 7 5 2 2 4 6 3 4 1 4 6 3 2 3 4 3 3 2 1 0 -2 0 5 10 8 7 6 6 5 5 5 1 2 1 4 2 1 2 -1 2 8 8 5
11 7 5 2 7 10 4 6 4 4 1 6 4 7 0 -0 4 -1 1 4 3 3 3 3 -1 -0 2 1 8 11 7 7 6 5 5 5 6 4 1 3 1 0 3 4 4 5 8 5 2
14 6 7 6 1 7 7 6 3 -0 4 2 8 3 5 1 6 10 0 -10 1 2 2 0 2 1 6 1 6 8 6 7 6 5 5 6 5 5 3 2 1 4 4 5 5 8 4 5 1
35 15 9 8 5 4 7 5 6 4 1 4 3 2 3 2 8 1 -1 18 -10 3 5 4 3 4 2 0 10 8 7 6 5 3 3 7 6 5 3 3 2 1 6 7 7 5 5 2 1
39 18 12 12 7 4 8 8 4 4 3 4 3 -4 5 3 7 -2 5 -1 -1 -1 4 3 5 3 2 1 9 15 8 7 6 5 4 7 5 4 2 1 3 6 5 4 7 4 3 1 2
31 27 15 12 14 6 12 8 5 6 4 3 3 5 1 -4 -6 -2 8 -9 11 2 3 -1 3 0 -0 15 8 10 6 7 5 7 4 7 5 3 2 2 6 6 4 6 4 4 2 2 2
13 26 22 13 15 15 8 12 6 5 5 2 2 3 4 8 -1 2 8 10 6 -2 -2 3 -12 -5 -11 29 5 6 8 11 2 8 9 6 4 2 2 4 5 5 6 5 3 3 2 2 2
16 17 18 20 13 16 15 15 7 6 4 0 4 -2 2 10 -18 1 -11 -4 -4 2 7 -2 -4 11 -9 8 4 6 8 8 3 7 6 5 3 2 4 2 3 5 6 3 3 4 2 1 3
7 20 10 19 24 7 26 14 10 6 5 3 3 7 -3 10 5 4 11 -7 12 4 -2 -1 30 8 7 -1 4 7 5 9 4 8 7 3 5 6 2 3 5 7 3 3 4 2 1 1 4
19 7 29 11 25 19 21 8 15 7 6 5 4 4 6 7 4 2 5 13 4 -5 -3 -3 15 1 -2 -0 2 6 5 7 7 7 6 4 5 4 3 5 7 5 3 4 3 2 2 2 8
4 6 16 28 10 19 14 12 17 11 8 1 19 -2 4 2 4 -2 16 9 12 -3 10 11 1 1 2 3 3 7 6 5 8 7 5 5 4 4 4 6 4 4 2 4 4 3 1 4 12
7 22 21 17 19 20 19 16 18 16 8 13 -12 10 13 4 14 -1 1 -20 2 32 30 1 3 1 2 2 4 7 6 5 8 9 4 4 4 3 4 4 4 3 3 5 4 3 2 9 17
9 18 20 13 24 22 16 13 21 19 11 5 -17 31 38 14 7 -2 -7 -15 10 4 11 2 1 8 6 -1 7 6 4 5 7 8 5 5 5 5 4 4 3 3 3 4 3 3 3 9 17
-1 16 22 17 19 22 9 15 18 19 13 12 15 -49 78 -1 -23 13 -21 -27 29 6 2 1 2 4 37 7 6 6 5 4 5 8 7 6 6 5 4 4 3 3 4 5 4 4 3 9 14
15 15 18 12 11 18 14 12 13 20 16 5 5 16 -42 5 7 31 34 14 16 19 7 9 8 46 44 5 5 6 6 4 4 6 6 5 5 4 4 3 3 4 5 5 5 4 3 10 13
6 21 13 11 10 17 17 12 13 17 19 10 10 13 -29 18 28 28 67 -28 28 6 18 21 22 6 4 4 6 5 4 4 6 6 5 4 4 4 4 4 4 6 6 6 5 4 3 11 13
23 12 14 13 12 7 12 19 17 12 15 14 13 2 6 -12 -37 3 12 2 35 -19 -0 27 -11 2 4 5 5 4 4 4 4 4 3 3 4 3 4 4 7 8 7 6 4 3 9 17 17
20 15 17 14 12 6 9 8 13 18 13 14 11 17 8 12 0 3 -7 14 11 21 13 9 5 1 5 5 4 5 5 4 3 3 4 5 5 4 6 9 8 5 4 3 3 12 19 17 15
9 16 3 21 20 16 11 12 22 16 20 11 18 7 4 6 11 20 6 2 12 -6 1 1 5 6 6 5 5 3 3 3 4 5 6 5 7 11 8 5 4 3 4 6 13 12 9 6 7
21 21 14 -9 14 15 13 10 5 15 17 22 10 12 21 21 8 8 3 0 -3 -7 5 6 7 6 5 4 3 4 3 4 5 6 9 12 7 3 3 4 4 6 10 14 10 7 6 5 7
21 17 26 5 13 19 15 15 18 1 15 26 19 9 6 12 17 15 9 12 28 4 2 7 5 3 4 3 3 3 4 7 14 10 5 3 4 4 4 5 9 10 6 5 4 3 5 8 8
7 17 13 14 13 16 12 19 19 15 11 19 14 12 8 5 16 11 4 3 2 0 -0 1 3 3 3 2 5 11 16 7 -1 3 5 4 4 5 8 9 6 6 7 5 7 7 5 4 4
9 3 8 7 11 12 12 19 21 10 10 10 24 10 11 6 -3 -4 0 4 3 3 1 3 2 2 5 15 6 -4 5 6 3 4 5 7 9 6 5 7 8 6 5 3 3 3 3 3 4
Height
5829 5832 5837 5841 5847 5847 5853 5861 5864 5868 5873 5876 5878 5880 5883 5884 5886 5889 5888 5889 5890 5891 5892 5892 5893 5894 5894 5895 5895 5895 5895 5895 5896 5896 5896 5895 5895 5894 5893 5893 5892 5891 5890 5889 5888 5886 5885 5884 5882
5819 5824 5829 5832 5836 5840 5850 5857 5861 5864 5869 5874 5876 5878 5881 5883 5885 5885 5887 5888 5889 5891 5892 5892 5893 5894 5894 5894 5894 5894 5895 5895 5895 5895 5895 5894 5894 5894 5893 5892 5891 5891 5890 5888 5887 5886 5885 5883 5881
5808 5815 5820 5823 5825 5832 5846 5854 5855 5860 5865 5871 5874 5876 5879 5881 5883 5884 5886 5887 5889 5890 5891 5892 5893 5893 5893 5893 5894 5894 5894 5894 5894 5894 5894 5894 5893 5893 5892 5892 5890 5889 5889 5888 5887 5885 5884 5882 5880
5796 5803 5809 5811 5818 5828 5843 5848 5849 5854 5861 5867 5870 5873 5877 5879 5882 5882 5884 5886 5887 5889 5890 5891 5892 5892 5892 5892 5893 5893 5892 5892 5893 5893 5892 5893 5892 5892 5891 5891 5890 5889 5888 5887 5885 5883 5882 5880 5878
5782 5790 5797 5801 5809 5821 5836 5841 5844 5850 5856 5863 5867 5871 5874 5877 5879 5880 5882 5884 5885 5887 5888 5889 5890 5891 5891 5891 5892 5891 5891 5891 5891 5891 5891 5891 5891 5891 5890 5889 5888 5887 5886 5885 5883 5881 5879 5877 5875
5768 5777 5786 5791 5800 5814 5829 5834 5838 5845 5852 5858 5864 5867 5871 5874 5877 5879 5880 5882 5884 5885 5886 5887 5888 5889 5890 5890 5890 5890 5889 5889 5889 5890 5889 5889 5889 5889 5889 5888 5886 5885 5884 5883 5881 5879 5876 5874 5871
5756 5765 5776 5783 5793 5806 5821 5826 5831 5839 5846 5852 5858 5863 5867 5870 5873 5876 5878 5880 5882 5883 5884 5885 5886 5886 5887 5887 5887 5887 5887 5887 5888 5888 5888 5887 5887 5886 5886 5885 5884 5883 5881 5880 5878 5875 5873 5871 5868
5742 5753 5763 5773 5785 5798 5813 5818 5824 5832 5839 5846 5852 5857 5863 5867 5870 5873 5875 5878 5879 5880 5882 5883 5883 5884 5885 5885 5885 5885 5885 5885 5886 5886 5886 5885 5885 5884 5883 5882 5881 5880 5878 5877 5875 5872 5870 5867 5864
5727 5738 5752 5764 5774 5789 5803 5810 5815 5824 5833 5841 5847 5854 5857 5863 5866 5870 5872 5875 5877 5878 5879 5880 5881 5882 5883 5884 5884 5883 5883 5883 5883 5884 5884 5883 5883 5882 5880 5879 5878 5877 5875 5873 5871 5869 5866 5863 5860
5712 5728 5741 5752 5763 5778 5791 5801 5807 5815 5825 5834 5841 5847 5853 5858 5862 5864 5868 5872 5874 5875 5877 5878 5878 5880 5881 5881 5881 5881 5881 5881 5881 5881 5881 5881 5880 5879 5877 5876 5874 5873 5871 5869 5867 5865 5862 5859 5855
5705 5718 5728 5738 5751 5766 5779 5790 5797 5807 5816 5828 5838 5843 5849 5853 5855 5860 5863 5866 5869 5872 5874 5875 5876 5877 5878 5878 5879 5879 5878 5878 5878 5878 5878 5877 5876 5875 5874 5872 5871 5869 5867 5865 5863 5860 5857 5854 5850
5699 5708 5716 5727 5739 5754 5767 5780 5788 5798 5810 5820 5829 5833 5839 5845 5849 5854 5857 5861 5864 5869 5870 5872 5873 5873 5875 5876 5876 5875 5875 5875 5875 5874 5874 5874 5873 5872 5870 5869 5867 5865 5863 5861 5858 5855 5852 5849 5845
5691 5700 5707 5717 5727 5742 5756 5769 5780 5791 5802 5813 5821 5828 5834 5839 5842 5845 5851 5857 5860 5862 5865 5867 5868 5870 5871 5872 5873 5872 5871 5871 5871 5870 5870 5870 5869 5868 5867 5865 5863 5861 5859 5856 5853 5851 5848 5844 5839
5687 5693 5700 5707 5718 5732 5747 5760 5773 5785 5795 5805 5814 5822 5827 5829 5834 5842 5847 5851 5852 5856 5860 5862 5864 5865 5868 5868 5868 5868 5868 5867 5867 5866 5865 5865 5864 5864 5863 5861 5859 5857 5855 5852 5849 5846 5842 5839 5834
5684 5689 5693 5702 5714 5723 5740 5753 5766 5777 5788 5799 5807 5813 5819 5825 5829 5833 5839 5842 5846 5850 5854 5857 5860 5862 5863 5864 5863 5863 5863 5863 5863 5861 5861 5860 5860 5859 5858 5857 5855 5853 5850 5847 5844 5840 5837 5833 5828
5682 5686 5692 5698 5708 5718 5733 5746 5758 5769 5781 5792 5801 5808 5816 5821 5825 5829 5833 5838 5841 5844 5847 5851 5854 5857 5859 5858 5858 5858 5858 5858 5858 5857 5856 5855 5855 5854 5853 5852 5850 5848 5845 5842 5839 5835 5831 5827 5822
5680 5685 5692 5695 5704 5714 5728 5740 5750 5761 5773 5784 5793 5803 5809 5813 5818 5821 5823 5828 5833 5836 5840 5844 5847 5850 5851 5852 5853 5853 5853 5853 5852 5852 5851 5850 5850 5849 5848 5846 5844 5842 5839 5836 5833 5830 5826 5821 5817
5680 5683 5686 5691 5700 5707 5721 5735 5744 5754 5765 5778 5789 5796 5802 5807 5812 5814 5813 5817 5822 5827 5833 5837 5840 5843 5844 5846 5848 5848 5847 5847 5847 5847 5846 5845 5844 5843 5841 5840 5838 5836 5833 5830 5826 5823 5819 5815 5811
5677 5680 5683 5689 5697 5705 5719 5729 5738 5749 5759 5771 5780 5791 5795 5801 5804 5808 5812 5811 5816 5820 5825 5829 5833 5836 5838 5840 5842 5842 5842 5841 5841 5841 5840 5839 5837 5836 5835 5834 5832 5829 5826 5823 5820 5816 5812 5808 5804
5679 5680 5683 5688 5694 5703 5712 5724 5732 5744 5755 5765 5777 5776 5787 5792 5800 5805 5807 5809 5814 5816 5818 5824 5827 5830 5832 5834 5835 5835 5835 5835 5835 5834 5833 5832 5831 5829 5828 5826 5823 5821 5819 5816 5813 5809 5806 5803 5799
5679 5680 5682 5687 5694 5701 5709 5719 5728 5738 5749 5758 5766 5774 5771 5784 5793 5794 5802 5799 5808 5810 5814 5820 5822 5823 5824 5827 5828 5828 5828 5829 5828 5827 5826 5825 5823 5821 5819 5817 5815 5813 5811 5808 5805 5802 5799 5796 5792
5680 5680 5683 5687 5695 5701 5707 5716 5724 5733 5742 5750 5759 5764 5772 5780 5787 5791 5798 5800 5802 5806 5811 5813 5814 5814 5817 5820 5821 5822 5822 5821 5821 5820 5818 5817 5815 5813 5811 5809 5807 5804 5802 5800 5797 5794 5791 5787 5784
5683 5682 5684 5689 5696 5701 5707 5713 5721 5729 5737 5744 5752 5760 5765 5773 5780 5785 5789 5792 5793 5801 5805 5806 5809 5811 5812 5813 5814 5814 5814 5814 5812 5811 5809 5808 5806 5804 5802 5799 5797 5795 5792 5790 5788 5785 5782 5778 5774
5685 5686 5687 5691 5697 5701 5705 5711 5717 5725 5733 5740 5747 5754 5761 5764 5769 5772 5780 5785 5791 5794 5797 5801 5802 5803 5804 5805 5805 5805 5806 5805 5803 5802 5800 5798 5796 5794 5792 5790 5788 5785 5783 5781 5778 5775 5771 5767 5764
5687 5689 5691 5694 5697 5702 5706 5710 5715 5721 5728 5735 5743 5749 5757 5762 5767 5773 5779 5783 5784 5788 5791 5793 5794 5796 5796 5798 5797 5797 5797 5796 5795 5793 5791 5789 5787 5784 5782 5780 5778 5775 5772 5769 5766 5762 5759 5756 5753
5689 5692 5693 5697 5699 5702 5705 5710 5714 5720 5725 5731 5739 5746 5753 5758 5764 5770 5774 5777 5781 5784 5786 5787 5788 5789 5790 5790 5790 5789 5788 5786 5785 5783 5782 5780 5777 5774 5771 5769 5766 5763 5760 5757 5753 5750 5748 5745 5742
5691 5693 5696 5699 5701 5703 5706 5709 5714 5718 5723 5729 5736 5742 5748 5754 5760 5764 5769 5774 5776 5778 5780 5781 5782 5781 5783 5783 5781 5780 5778 5776 5775 5774 5772 5770 5766 5763 5760 5757 5753 5750 5747 5744 5741 5739 5736 5733 5730
5696 5697 5698 5700 5702 5704 5706 5709 5712 5718 5723 5727 5732 5738 5744 5750 5755 5760 5764 5768 5770 5773 5773 5773 5773 5774 5774 5772 5771 5770 5768 5767 5765 5763 5760 5757 5754 5750 5747 5743 5740 5737 5734 5731 5728 5726 5723 5719 5716
5699 5700 5701 5702 5703 5704 5707 5711 5712 5716 5721 5725 5729 5734 5740 5746 5752 5756 5759 5762 5763 5765 5765 5765 5765 5765 5763 5763 5762 5760 5758 5756 5753 5750 5747 5744 5740 5736 5733 5729 5726 5723 5720 5717 5714 5711 5708 5705 5701
5702 5702 5703 5704 5705 5705 5707 5711 5712 5716 5720 5725 5729 5731 5736 5741 5746 5750 5752 5754 5755 5756 5757 5756 5756 5755 5754 5753 5751 5749 5746 5743 5740 5737 5733 5729 5726 5722 5718 5715 5711 5707 5703 5700 5697 5694 5690 5687 5683